Stations météo

réclame
Mon MeteoGroup
Waldmünchen, Allemagne (10782): Température de l'air & dewpoint: 14.06.2018 07:00:00 - 20.06.2018 07:00:00 (CEST)Waldmünchen, Allemagne (10782): Température de l'air 5cm & Température de l'air -5cm: 14.06.2018 07:00:00 - 20.06.2018 07:00:00 (CEST)Waldmünchen, Allemagne (10782): Température de l'air -20cm & Température de l'air -100cm: 14.06.2018 07:00:00 - 20.06.2018 07:00:00 (CEST)Waldmünchen, Allemagne (10782): Vitesse du vent & gusts: 14.06.2018 07:00:00 - 20.06.2018 07:00:00 (CEST)Waldmünchen, Allemagne (10782): Direction du vent: 14.06.2018 07:00:00 - 20.06.2018 07:00:00 (CEST)Waldmünchen, Allemagne (10782): reduced air pressure: 14.06.2018 07:00:00 - 20.06.2018 07:00:00 (CEST)Waldmünchen, Allemagne (10782): visibility: 14.06.2018 07:00:00 - 20.06.2018 07:00:00 (CEST)Waldmünchen, Allemagne (10782): Ensoleillement: 14.06.2018 07:00:00 - 20.06.2018 07:00:00 (CEST)Waldmünchen, Allemagne (10782): Quantités de précipitations: 14.06.2018 07:00:00 - 20.06.2018 07:00:00 (CEST)
Date & Time tt [°C] td [°C] tt 5cm [°C] tt -5cm [°C] tt -20cm [°C] tt -100cm [°C] ff [km/h] ff [knt] fx [km/h] fx [knt] dd ppp [hPa] vv [km] sd [min] rr [mm]
20.06.2018 07:00:00 16,5 14,2 16,8 17,7 19,2 15,3 3 1 7 4 E 1023,4 16 0 0,0
20.06.2018 06:00:00 15,9 14,2 15,7 17,5 19,4 15,3 4 2 6 4 E 1023,5 16 0 0,0
20.06.2018 05:00:00 15,9 13,8 15,5 17,6 19,6 15,3 4 2 4 2 ENE 1023,5 18 0 0,0
20.06.2018 04:00:00 16,0 13,9 15,5 17,9 19,8 15,3 2 1 5 3 SW 1023,5 19 0 0,0
20.06.2018 03:00:00 16,5 14,5 16,2 18,3 20,1 15,3 3 1 6 3 ESE 1023,5 19 0 0,0
20.06.2018 02:00:00 16,8 14,8 16,5 18,7 20,3 15,3 1 1 5 3 E 1023,8 24 0 0,0
20.06.2018 01:00:00 16,9 14,5 16,7 19,0 20,6 15,3 3 2 6 3 ENE 1023,7 21 0 0,0
20.06.2018 00:00:00 17,1 14,5 16,7 19,5 20,8 15,3 4 2 6 4 E 1023,8 21 0 0,0
19.06.2018 23:00:00 17,3 14,8 16,7 20,0 21,1 15,2 6 3 6 4 E 1023,6 19 0 0,0
19.06.2018 22:00:00 18,6 13,3 17,2 21,3 21,2 15,2 3 2 7 4 N 1023,3 27 0 0,0
19.06.2018 21:00:00 20,5 14,4 20,1 22,9 21,3 15,2 4 2 9 5 SSE 1022,5 26 17 0,0
19.06.2018 20:00:00 21,4 13,2 21,4 24,1 21,2 15,2 4 2 18 10 N 1022,3 28 0 0,0
19.06.2018 19:00:00 21,8 13,3 23,2 25,8 21,0 15,2 11 6 24 13 WNW 1022,2 20 6 0,0
19.06.2018 18:00:00 22,2 13,2 24,7 27,2 20,7 15,2 10 6 28 15 WNW 1021,9 33 16 0,0
19.06.2018 17:00:00 22,2 12,9 25,3 27,3 20,2 15,2 15 8 27 15 W 1022,3 25 6 0,0
19.06.2018 16:00:00 22,0 12,4 26,3 28,3 19,7 15,2 14 7 26 14 W 1022,4 30 7 0,0
19.06.2018 15:00:00 22,3 13,0 29,7 27,1 19,2 15,2 10 5 27 15 WSW 1022,6 26 11 0,0
19.06.2018 14:00:00 20,3 12,3 22,5 26,7 18,8 15,2 11 6 22 12 SW 1023,1 31 9 0,0
19.06.2018 13:00:00 20,2 13,0 24,7 24,2 18,3 15,2 13 7 21 11 W 1023,4 22 5 0,0
19.06.2018 12:00:00 19,4 12,0 22,3 24,4 17,9 15,2 15 8 23 13 SW 1023,5 23 2 0,0
19.06.2018 11:00:00 18,4 12,0 22,9 22,0 17,6 15,2 11 6 21 11 WNW 1023,8 20 0 0,0
19.06.2018 10:00:00 18,1 12,2 22,4 20,3 17,4 15,2 8 4 12 7 WSW 1023,9 20 2 0,0
19.06.2018 09:00:00 16,0 11,0 18,2 17,9 17,4 15,2 7 4 9 5 SW 1024,2 18 0 0,0
19.06.2018 08:00:00 14,9 10,9 18,0 16,8 17,5 15,2 3 2 5 3 W 1024,0 18 44 0,0
19.06.2018 07:00:00 13,1 9,4 15,7 14,0 17,9 15,2 0 0 6 3 N 1024,4 18 60 0,0
19.06.2018 06:00:00 10,0 9,0 9,5 12,8 18,2 15,2 1 1 7 4 W 1024,8 9 8 0,0
19.06.2018 05:00:00 9,7 9,2 8,7 13,2 18,7 15,2 5 3 11 6 E 1024,5 7 0 0,0
19.06.2018 04:00:00 10,0 9,2 9,2 13,8 19,1 15,2 5 3 6 3 E 1024,2 11 0 0,0
19.06.2018 03:00:00 10,6 9,7 9,9 14,5 19,5 15,2 4 2 7 4 E 1023,9 12 0 0,0
19.06.2018 02:00:00 10,9 10,1 9,8 15,1 20,0 15,2 5 3 7 4 E 1023,9 13 0 0,0
19.06.2018 01:00:00 11,7 10,4 10,7 16,0 20,5 15,2 6 3 8 4 E 1023,8 17 0 0,0
19.06.2018 00:00:00 12,3 10,4 11,2 17,1 20,9 15,2 5 3 11 6 E 1023,6 24 0 0,0
18.06.2018 23:00:00 14,1 10,7 12,5 18,4 21,3 15,2 4 2 8 4 E 1022,9 37 0 0,0
18.06.2018 22:00:00 16,1 11,1 14,2 20,2 21,6 15,2 6 4 9 5 ENE 1022,0 36 0 0,0
18.06.2018 21:00:00 19,3 10,3 16,8 22,5 21,7 15,2 6 3 29 16 WNW 1020,7 45 51 0,0
18.06.2018 20:00:00 21,2 10,2 21,6 25,1 21,7 15,2 16 9 23 13 WNW 1020,0 23 36 0,0
18.06.2018 19:00:00 21,6 9,9 22,4 27,0 21,6 15,2 16 9 22 12 W 1019,8 39 37 0,0
18.06.2018 18:00:00 22,1 10,6 25,5 27,0 21,3 15,2 14 8 20 11 W 1019,7 45 3 0,0
18.06.2018 17:00:00 21,7 9,1 23,6 30,0 20,7 15,2 11 6 29 16 WSW 1019,9 47 30 0,0
18.06.2018 16:00:00 22,1 8,6 28,4 31,4 20,0 15,2 16 9 27 15 W 1019,9 29 51 0,0
18.06.2018 15:00:00 21,2 9,5 27,0 30,4 19,2 15,2 19 11 31 17 W 1020,2 24 27 0,0
18.06.2018 14:00:00 21,7 10,6 27,8 30,5 18,5 15,2 18 10 31 17 WSW 1020,3 14 49 0,0
18.06.2018 13:00:00 19,7 10,0 23,5 26,9 17,9 15,1 16 9 28 15 W 1020,8 22 31 0,0
18.06.2018 12:00:00 19,8 10,4 27,6 25,4 17,3 15,1 16 9 32 17 WNW 1020,9 24 47 0,0
18.06.2018 11:00:00 18,5 8,5 22,1 22,9 16,9 15,1 16 9 29 16 W 1021,0 22 36 0,0
18.06.2018 10:00:00 18,3 10,7 23,2 21,2 16,6 15,1 14 8 33 18 WSW 1020,9 22 58 0,0
18.06.2018 09:00:00 16,4 11,2 20,2 18,8 16,5 15,1 10 6 16 9 SW 1020,9 16 60 0,0
18.06.2018 08:00:00 15,8 10,5 18,9 16,1 16,6 15,1 2 1 5 3 NNW 1020,7 25 60 0,0
18.06.2018 07:00:00 12,7 10,5 13,2 13,3 16,8 15,1 0 0 5 3 N 1021,4 14 20 0,0
18.06.2018 06:00:00 10,8 10,0 10,2 12,9 17,1 15,1 4 2 5 3 E 1021,6 8 0 0,0
18.06.2018 05:00:00 10,8 10,2 10,3 13,1 17,3 15,1 0 0 7 4 N 1021,4 8 0 0,0
18.06.2018 04:00:00 11,2 10,6 10,5 13,4 17,6 15,1 6 3 7 4 E 1021,1 9 0 0,0
18.06.2018 03:00:00 11,8 10,9 10,8 14,1 17,9 15,1 3 1 5 3 ESE 1020,9 12 0 0,0
18.06.2018 02:00:00 11,7 11,0 11,4 14,1 18,3 15,1 2 1 8 4 E 1020,6 11 0 0,0
18.06.2018 01:00:00 12,2 11,5 11,8 14,5 18,7 15,1 5 3 6 3 ESE 1020,4 9 0 0,0
18.06.2018 00:00:00 12,7 12,0 11,4 15,1 19,0 15,1 5 3 8 5 E 1020,1 7 0 0,0
17.06.2018 23:00:00 13,6 12,2 10,9 16,1 19,4 15,1 3 2 8 4 SSW 1019,5 19 0 0,0
17.06.2018 22:00:00 15,6 12,7 13,5 17,4 19,6 15,1 0 0 12 6 N 1018,6 23 0 0,0
17.06.2018 21:00:00 18,6 12,6 15,6 19,2 19,7 15,1 5 3 13 7 NW 1017,2 29 32 0,0
17.06.2018 20:00:00 19,6 14,1 19,6 20,5 19,9 15,1 4 2 7 4 W 1016,7 28 25 0,0
17.06.2018 19:00:00 17,9 13,9 16,8 20,0 20,1 15,1 0 0 12 6 N 1016,5 30 0 0,0
17.06.2018 18:00:00 17,3 13,6 16,4 20,7 20,2 15,1 9 5 31 17 NW 1016,9 26 0 0,3
17.06.2018 17:00:00 19,1 14,3 19,0 23,0 20,2 15,1 14 7 29 16 WSW 1016,1 18 0 0,0
17.06.2018 16:00:00 20,4 14,0 20,9 24,5 19,9 15,1 25 13 36 19 WSW 1015,5 22 0 0,0
17.06.2018 15:00:00 22,7 11,9 24,5 26,5 19,5 15,1 18 10 32 17 W 1014,8 27 4 0,0
17.06.2018 14:00:00 23,5 11,3 25,4 27,3 18,9 15,1 16 9 30 16 W 1014,6 18 14 0,0
17.06.2018 13:00:00 24,4 11,4 31,0 26,9 18,3 15,1 13 7 26 14 WSW 1014,7 20 27 0,0
17.06.2018 12:00:00 23,7 10,3 29,3 26,6 17,7 15,1 11 6 26 14 SSW 1014,8 15 60 0,0
17.06.2018 11:00:00 23,2 11,3 27,4 24,6 17,3 15,1 6 3 15 8 SSW 1015,2 20 60 0,0
17.06.2018 10:00:00 20,7 10,6 25,4 20,8 17,0 15,1 6 4 12 6 W 1015,8 15 34 0,0
17.06.2018 09:00:00 20,0 11,9 23,8 19,2 16,9 15,1 5 3 8 4 WNW 1015,7 16 57 0,0
17.06.2018 08:00:00 16,7 11,9 19,0 16,5 17,0 15,1 4 2 9 5 E 1016,2 14 54 0,0
17.06.2018 07:00:00 12,9 10,4 13,1 14,4 17,3 15,1 0 0 5 3 N 1016,9 9 38 0,0
17.06.2018 06:00:00 11,7 10,5 11,0 13,4 17,6 15,1 3 2 6 3 ESE 1016,8 8 0 0,0
17.06.2018 05:00:00 11,8 10,6 10,5 13,9 17,8 15,1 4 2 4 2 E 1016,5 8 0 0,0
17.06.2018 04:00:00 13,3 11,3 11,8 14,9 18,1 15,1 2 1 4 2 ENE 1016,2 15 0 0,0
17.06.2018 03:00:00 14,3 11,7 13,5 15,6 18,4 15,1 4 2 6 3 E 1016,1 17 0 0,0
17.06.2018 02:00:00 14,5 12,2 14,0 15,9 18,7 15,1 4 2 11 6 ENE 1016,0 15 0 0,0
17.06.2018 01:00:00 14,5 11,5 14,3 16,1 19,0 15,1 8 4 10 6 E 1016,2 19 0 0,0
17.06.2018 00:00:00 14,4 12,0 14,0 16,3 19,3 15,1 3 2 10 5 NE 1016,0 15 0 0,0
16.06.2018 23:00:00 15,1 11,9 14,0 17,0 19,6 15,2 3 2 9 5 NE 1015,8 18 0 0,0
16.06.2018 22:00:00 16,4 12,4 15,0 18,3 19,9 15,2 10 5 11 6 E 1015,3 20 0 0,0
16.06.2018 21:00:00 18,6 12,5 17,2 19,9 20,0 15,2 5 3 7 4 E 1014,4 24 7 0,0
16.06.2018 20:00:00 21,6 10,8 21,0 21,9 20,0 15,2 4 2 16 8 ENE 1013,5 26 42 0,0
16.06.2018 19:00:00 23,6 7,8 24,2 24,4 19,8 15,2 13 7 18 10 ESE 1012,9 27 60 0,0
16.06.2018 18:00:00 23,2 9,5 23,6 24,4 19,5 15,2 7 4 15 8 SW 1013,2 33 37 0,0
16.06.2018 17:00:00 23,8 8,6 26,7 25,3 19,1 15,2 6 4 16 9 S 1013,4 30 34 0,0
16.06.2018 16:00:00 22,9 8,0 23,5 27,1 18,5 15,2 13 7 21 11 NE 1013,8 39 49 0,0
16.06.2018 15:00:00 23,3 7,6 27,8 26,3 18,0 15,2 7 4 17 9 E 1014,1 23 53 0,0
16.06.2018 14:00:00 22,2 9,0 24,6 23,0 17,6 15,2 9 5 19 10 NNE 1014,7 26 11 0,0
16.06.2018 13:00:00 21,6 8,2 23,4 24,3 17,1 15,2 7 4 23 12 SSE 1015,4 31 44 0,0
16.06.2018 12:00:00 21,8 10,2 25,6 23,0 16,7 15,2 13 7 26 14 E 1015,5 29 43 0,0
16.06.2018 11:00:00 20,7 7,0 22,7 20,8 16,2 15,2 15 8 25 14 ENE 1015,8 31 33 0,0
16.06.2018 10:00:00 20,8 10,1 27,1 20,5 15,8 15,2 5 3 8 5 N 1015,7 26 36 0,0
16.06.2018 09:00:00 19,3 11,0 22,9 18,8 15,6 15,2 3 1 5 3 WSW 1016,2 17 60 0,0
16.06.2018 08:00:00 14,8 10,2 17,8 15,1 15,7 15,2 4 2 6 3 W 1017,1 12 60 0,0
16.06.2018 07:00:00 11,8 9,0 12,6 12,3 16,0 15,2 3 2 11 6 SSE 1017,7 8 60 0,0
16.06.2018 06:00:00 9,5 8,7 9,3 11,2 16,3 15,3 5 3 9 5 E 1017,9 4,8 1 0,0
16.06.2018 05:00:00 9,1 8,3 7,8 11,4 16,7 15,3 4 2 9 5 E 1018,1 4,4 0 0,0
16.06.2018 04:00:00 10,3 8,9 8,9 12,0 17,1 15,3 8 4 10 6 ESE 1018,1 10 0 0,0
16.06.2018 03:00:00 10,3 9,4 9,0 12,5 17,5 15,3 4 2 6 3 ESE 1018,4 8 0 0,0
16.06.2018 02:00:00 10,5 9,7 9,2 13,1 17,9 15,3 0 0 8 4 N 1018,5 8 0 0,0
16.06.2018 01:00:00 11,1 10,0 9,3 13,9 18,3 15,3 2 1 6 3 S 1018,2 10 0 0,0
16.06.2018 00:00:00 11,8 10,6 10,1 14,9 18,7 15,3 4 2 6 3 NE 1018,0 12 0 0,0
15.06.2018 23:00:00 13,2 11,1 12,2 16,0 19,1 15,3 5 3 8 5 E 1017,4 18 0 0,0
15.06.2018 22:00:00 14,5 11,9 13,2 17,6 19,4 15,3 8 4 10 6 E 1016,8 18 0 0,0
15.06.2018 21:00:00 16,8 12,3 15,0 19,5 19,5 15,4 0 0 6 3 N 1016,0 23 34 0,0
15.06.2018 20:00:00 19,6 11,4 18,8 21,2 19,5 15,4 0 0 8 4 N 1015,2 29 17 0,0
15.06.2018 19:00:00 20,4 10,7 19,9 23,0 19,2 15,4 5 3 15 8 E 1014,9 37 22 0,0
15.06.2018 18:00:00 22,1 7,4 25,0 25,1 18,9 15,4 6 3 13 7 ENE 1014,6 37 51 0,0
15.06.2018 17:00:00 21,6 7,1 25,2 25,8 18,4 15,4 5 3 12 7 ESE 1015,0 37 49 0,0
15.06.2018 16:00:00 20,7 7,6 21,7 25,6 17,9 15,4 6 3 16 9 ENE 1015,3 49 37 0,0
15.06.2018 15:00:00 20,5 6,9 25,3 24,9 17,3 15,4 8 5 18 10 NNE 1015,4 37 30 0,0
15.06.2018 14:00:00 20,2 8,7 24,5 25,5 16,6 15,4 11 6 19 11 WSW 1015,6 45 40 0,0
15.06.2018 13:00:00 19,3 8,7 21,9 24,7 16,0 15,5 9 5 18 10 WSW 1016,0 44 38 0,0
15.06.2018 12:00:00 19,0 8,1 25,8 22,2 15,3 15,5 7 4 20 11 WSW 1016,2 36 30 0,0
15.06.2018 11:00:00 17,9 7,6 21,8 21,8 14,7 15,5 8 4 15 8 WSW 1016,4 32 44 0,0
15.06.2018 10:00:00 16,9 9,0 22,0 19,3 14,3 15,5 5 3 10 5 SSW 1016,8 19 60 0,0
15.06.2018 09:00:00 14,2 8,8 18,7 15,1 14,2 15,5 5 3 8 4 SW 1017,5 23 8 0,0
15.06.2018 08:00:00 11,5 9,7 12,5 12,8 14,3 15,5 4 2 7 4 WSW 1017,9 18 0 0,0
15.06.2018 07:00:00 9,7 8,6 10,1 11,4 14,5 15,5 3 1 4 2 WSW 1018,2 16 0 0,0
15.06.2018 06:00:00 9,0 8,4 8,9 10,8 14,7 15,5 0 0 6 3 N 1018,3 14 0 0,0
15.06.2018 05:00:00 8,3 7,7 8,3 10,6 15,0 15,6 3 2 6 4 W 1018,4 13 0 0,0
15.06.2018 04:00:00 7,8 7,6 7,9 10,2 15,3 15,6 6 3 8 4 E 1018,4 9 0 0,0
15.06.2018 03:00:00 7,9 7,5 7,3 10,7 15,6 15,6 5 3 9 5 E 1018,6 7 0 0,0
15.06.2018 02:00:00 8,7 8,2 7,7 11,5 15,9 15,6 5 3 7 4 E 1018,2 9 0 0,0
15.06.2018 01:00:00 10,0 8,9 8,4 12,6 16,2 15,6 3 2 4 2 ENE 1018,1 14 0 0,0
15.06.2018 00:00:00 10,5 9,0 10,4 13,0 16,5 15,6 0 0 6 3 N 1018,2 19 0 0,0
14.06.2018 23:00:00 10,3 9,2 10,2 13,2 16,8 15,6 5 3 11 6 E 1018,0 17 0 0,0
14.06.2018 22:00:00 11,0 9,4 10,0 14,5 16,9 15,6 8 4 9 5 E 1017,5 19 0 0,0
14.06.2018 21:00:00 13,3 8,8 12,7 16,4 17,0 15,7 4 2 10 5 ENE 1016,3 29 26 0,0
14.06.2018 20:00:00 15,5 7,1 15,2 17,6 16,9 15,7 6 4 11 6 W 1015,5 37 5 0,0
14.06.2018 19:00:00 15,6 7,0 16,7 18,6 16,7 15,7 8 4 14 8 W 1015,5 32 0 0,0
14.06.2018 18:00:00 15,9 7,5 18,4 19,7 16,4 15,7 6 3 11 6 W 1015,6 30 1 0,0
14.06.2018 17:00:00 15,9 7,0 18,6 19,3 16,1 15,7 4 2 12 7 W 1015,7 23 0 0,0
14.06.2018 16:00:00 15,0 7,2 17,7 19,4 15,9 15,7 8 4 11 6 SW 1016,2 20 0 0,0
14.06.2018 15:00:00 14,5 6,7 18,5 18,0 15,6 15,7 4 2 9 5 WNW 1016,7 20 0 0,0
14.06.2018 14:00:00 13,8 7,1 15,8 16,9 15,4 15,7 5 3 11 6 E 1017,1 21 0 0,0
14.06.2018 13:00:00 13,5 7,3 15,2 17,2 15,2 15,7 8 4 11 6 W 1017,3 18 0 0,0
14.06.2018 12:00:00 13,4 7,3 15,5 16,3 15,1 15,8 9 5 13 7 E 1017,4 19 0 0,0
14.06.2018 11:00:00 13,2 8,2 15,0 15,0 15,0 15,8 3 2 8 4 SW 1017,3 19 0 0,0
14.06.2018 10:00:00 12,5 8,0 13,5 14,0 15,0 15,8 3 2 6 4 SW 1017,4 20 0 0,0
14.06.2018 09:00:00 11,9 8,6 12,6 13,3 15,0 15,8 4 2 8 5 WSW 1017,3 17 0 0,0
14.06.2018 08:00:00 11,9 8,3 12,2 12,9 15,1 15,8 4 2 8 4 NNE 1017,1 21 0 0,0
14.06.2018 07:00:00 11,3 9,2 11,3 12,5 15,2 15,8 0 0 5 3 N 1017,0 15 0 0,0

tt = Température de l'air
td = dewpoint
tt 5cm = Température de l'air 5cm
tt -5cm = Température de l'air -5cm
tt -20cm = Température de l'air -20cm
tt -100cm = Température de l'air -100cm
ff = Vitesse du vent
fx = gusts
dd = Direction du vent
ppp = reduced air pressure
vv = visibility
sd = Ensoleillement
rr = Quantités de précipitations

stations d'obs. à proximité